Weather History for Paris / Charles De Gaulle, France

Change the Weather History Date:

Thursday, June 7, 2012

  Actual Average Record
Temperature  
Mean Temperature 65 °F -  
Max Temperature 71 °F 72 °F 82 °F (2003)
Min Temperature 59 °F 54 °F 42 °F (2005)
Growing Degree Days 15 (Base 50)    
Moisture  
Dew Point 54 °F    
Average Humidity 73    
Maximum Humidity 94    
Minimum Humidity 46    
Precipitation  
Precipitation 0.00 in - - ()
Sea Level Pressure  
Sea Level Pressure 29.61 in    
Wind  
Wind Speed 9 mph ()    
Max Wind Speed 26 mph    
Max Gust Speed 37 mph    
Visibility 5.8 miles    
Events Rain    
Averages and records for this station are not official NWS values.
T = Trace of Precipitation, MM = Missing Value Source: Averaged Metar Reports

Daily Weather History Graph

Daily Weather History Graph

Search for Another Location

Airport:

Trip Planner

Search our weather history database for the weather conditions in past years. The results will help you decide how hot, cold, wet, or windy it might be!

Date:

Astronomy

Jun. 07, 2012 Rise Set
Actual Time 5:46 AM CEST 9:51 PM CEST
Civil Twilight 5:04 AM CEST 10:33 PM CEST
Nautical Twilight 4:05 AM CEST 11:32 PM CEST
Astronomical Twilight 2:13 AM CEST 1:29 AM CEST
Moon No Moon Rise 9:10 AM CEST (6/7)
Length of Visible Light 17h 28m
Length of Day
16h 04m
Waning Gibbous, 88% of the Moon is Illuminated
Jun 7
Waning Gibbous
Jun 11
Last Quarter
Jun 19
New
Jun 27
First Quarter
Jul 3
Full

Hourly Weather History & Observations

Time (CEST) Temp. Dew Point Humidity Pressure Visibility Wind Dir Wind Speed Gust Speed Precip Events Conditions
12:00 AM 62.6 °F 51.8 °F 68% 29.74 in - SW 10.4 mph - N/A   Clear
12:30 AM 62.6 °F 53.6 °F 72% 29.74 in - SSW 9.2 mph - N/A   Clear
1:00 AM 62.6 °F 51.8 °F 68% 29.74 in - SSW 6.9 mph - N/A   Clear
1:30 AM 62.6 °F 51.8 °F 68% 29.74 in - SSW 8.1 mph - N/A   Clear
2:00 AM 60.8 °F 51.8 °F 72% 29.74 in - SSW 9.2 mph - N/A   Clear
2:30 AM 60.8 °F 53.6 °F 77% 29.74 in - South 5.8 mph - N/A   Clear
3:00 AM 60.8 °F 53.6 °F 77% 29.74 in - South 5.8 mph - N/A   Clear
3:30 AM 59.0 °F 53.6 °F 82% 29.74 in - South 6.9 mph - N/A   Clear
4:00 AM 59.0 °F 55.4 °F 88% 29.71 in - South 8.1 mph - N/A   Clear
4:30 AM 59.0 °F 55.4 °F 88% 29.71 in - South 6.9 mph - N/A   Clear
5:00 AM 59.0 °F 55.4 °F 88% 29.71 in - SSE 4.6 mph - N/A   Clear
5:30 AM 59.0 °F 55.4 °F 88% 29.68 in - SE 5.8 mph - N/A   Clear
6:00 AM 59.0 °F 55.4 °F 88% 29.68 in - SSE 6.9 mph - N/A   Clear
6:30 AM 59.0 °F 55.4 °F 88% 29.68 in - South 4.6 mph - N/A   Clear
7:00 AM 59.0 °F 55.4 °F 88% 29.68 in - SSE 4.6 mph - N/A   Clear
7:30 AM 59.0 °F 55.4 °F 88% 29.68 in - SSE 5.8 mph - N/A   Clear
8:00 AM 59.0 °F 55.4 °F 88% 29.68 in - SSE 6.9 mph - N/A   Clear
8:30 AM 59.0 °F 55.4 °F 88% 29.65 in 6.2 mi SSE 6.9 mph - N/A   Mostly Cloudy
9:00 AM 60.8 °F 55.4 °F 82% 29.65 in 6.2 mi SSE 4.6 mph - N/A   Mostly Cloudy
9:30 AM 60.8 °F 55.4 °F 82% 29.65 in - SE 6.9 mph - N/A   Clear
10:00 AM 60.8 °F 55.4 °F 82% 29.62 in - SE 10.4 mph - N/A   Clear
10:30 AM 64.4 °F 53.6 °F 68% 29.59 in - SE 10.4 mph - N/A   Clear
11:00 AM 62.6 °F 55.4 °F 77% 29.59 in - SE 11.5 mph - N/A   Clear
11:30 AM 64.4 °F 55.4 °F 73% 29.56 in - ESE 15.0 mph - N/A   Clear
12:00 PM 64.4 °F 57.2 °F 77% 29.56 in - ESE 13.8 mph - N/A   Clear
12:30 PM 64.4 °F 57.2 °F 77% 29.53 in 6.2 mi ESE 13.8 mph - N/A   Mostly Cloudy
1:00 PM 64.4 °F 57.2 °F 77% 29.50 in 6.2 mi East 10.4 mph - N/A Rain Light Rain
1:30 PM 64.4 °F 59.0 °F 83% 29.53 in 3.1 mi SE 3.5 mph - N/A Rain Rain
2:00 PM 64.4 °F 60.8 °F 88% 29.53 in 4.3 mi ENE 6.9 mph - N/A Rain Light Rain
2:30 PM 64.4 °F 60.8 °F 88% 29.50 in 6.2 mi ENE 8.1 mph - N/A Rain Rain Showers
3:00 PM 64.4 °F 60.8 °F 88% 29.47 in 1.9 mi NE 5.8 mph - N/A Rain Rain Showers
3:30 PM 64.4 °F 62.6 °F 94% 29.50 in 6.2 mi Variable 4.6 mph - N/A   Mostly Cloudy
4:00 PM 68.0 °F 62.6 °F 83% 29.47 in 6.2 mi SW 13.8 mph - N/A   Scattered Clouds
4:30 PM 69.8 °F 60.8 °F 73% 29.50 in 6.2 mi SW 23.0 mph - N/A   Partly Cloudy
5:00 PM 69.8 °F 57.2 °F 64% 29.50 in 6.2 mi SW 19.6 mph - N/A   Scattered Clouds
5:30 PM 71.6 °F 57.2 °F 60% 29.50 in 6.2 mi SW 18.4 mph - N/A   Scattered Clouds
6:00 PM 71.6 °F 55.4 °F 57% 29.50 in 6.2 mi SW 26.5 mph - N/A   Scattered Clouds
6:30 PM 69.8 °F 51.8 °F 53% 29.50 in 6.2 mi SW 19.6 mph - N/A   Scattered Clouds
7:00 PM 69.8 °F 50.0 °F 49% 29.53 in 6.2 mi WSW 25.3 mph 36.8 mph N/A   Scattered Clouds
7:30 PM 69.8 °F 50.0 °F 49% 29.56 in 6.2 mi WSW 21.9 mph - N/A   Scattered Clouds
8:00 PM 68.0 °F 48.2 °F 49% 29.56 in 6.2 mi WSW 20.7 mph - N/A   Scattered Clouds
8:30 PM 68.0 °F 48.2 °F 49% 29.56 in 6.2 mi WSW 19.6 mph - N/A   Scattered Clouds
9:00 PM 68.0 °F 46.4 °F 46% 29.59 in - WSW 17.3 mph - N/A   Clear
9:30 PM 66.2 °F 46.4 °F 49% 29.59 in 6.2 mi WSW 18.4 mph - N/A   Scattered Clouds
10:00 PM 64.4 °F 46.4 °F 52% 29.62 in 6.2 mi WSW 13.8 mph - N/A   Partly Cloudy
10:30 PM 62.6 °F 46.4 °F 55% 29.62 in 6.2 mi WSW 15.0 mph - N/A   Partly Cloudy
11:00 PM 62.6 °F 46.4 °F 55% 29.65 in 6.2 mi SW 15.0 mph - N/A   Partly Cloudy
11:30 PM 62.6 °F 46.4 °F 55% 29.65 in 6.2 mi SW 19.6 mph - N/A   Partly Cloudy